Regional Weather Roundup
Issued by NWS

Home | Current Version | Previous Version | Graphics & Text | Print | Product List | Glossary On
Versions: 1 2 3 4 5 6 7 8 9 10 11 12 13 14 15 16 17 18 19 20 21 22 23 24 25 26 27 28 29 30 31 32 33 34 35 36 37 38 39 40 41 42 43 44 45 46 47 48 49 50
816
ASUS43 KMPX 081010
RWRMN
WEATHER ROUNDUP FOR MINNESOTA
NATIONAL WEATHER SERVICE TWIN CITIES/CHANHASSEN MN
400 AM CST THU DEC 08 2016


NOTE: "FAIR" INDICATES FEW OR NO CLOUDS BELOW 12,000 FEET WITH NO
SIGNIFICANT WEATHER AND/OR OBSTRUCTIONS TO VISIBILITY. N/A MEANS
CURRENT SKY AND/OR WEATHER CONDITIONS ARE NOT AVAILABLE.

MNZ060>063-068>070-081100-
   Twin Cities Metro

CITY           SKY/WX    TMP DP  RH WIND       PRES   REMARKS
TWIN CITIES    CLOUDY    17  11  77 W10       30.19R WCI   5
ST PAUL        CLOUDY    17  32 100 W10       30.19S WCI   5
CRYSTAL        MOCLDY    17   9  70 W15G23    30.17S WCI   2
BLAINE         PTCLDY    19  16  86 W12G20    30.16R FOG     WCI   7
LAKEVILLE      LGT SNOW  12  10  92 W14G20    30.19R WCI  -3
EDEN PRAIRIE   CLOUDY    17  10  74 W15       30.19R HAZE    WCI   2
SOUTH ST PAUL  CLOUDY    17  12  80 W9        30.18R WCI   6
LAKE ELMO      MOCLDY    19  14  79 W10G18    30.16S WCI   8
$$
MNZ001>005-007-008-013>017-022>024-027-028-081100-
   Northwest Minnesota

CITY           SKY/WX    TMP DP  RH WIND       PRES   REMARKS
BEMIDJI        LGT SNOW  17  14  88 NW13      30.18R WCI   4
HALLOCK          N/A     18  16  93 NW22G30   30.34R WCI   0
ROSEAU         FLURRIES  18  12  79 NW13      30.25R WCI   4
WARROAD        LGT SNOW  18  14  86 NW13      30.23R WCI   4
THIEF RVR FALL FLURRIES  17  13  84 NW22      30.29R WCI   0
CROOKSTON      LGT SNOW  16  16 100 NW23G30   30.33R WCI  -2
FOSSTON        LGT SNOW  16  12  86 NW21G29   30.25R WCI  -2
DETROIT LAKES  LGT SNOW  19  18  93 NW21G28   30.26R WCI   3
MOORHEAD       MIX PCPN  16  10  79 NW25G31   30.34R WCI  -3
PARK RAPIDS    CLOUDY    18  11  74 NW18G25   30.18R WCI   2
$$
MNZ006-009>011-018-025>026-081100-
   North Central Minnesota

CITY           SKY/WX    TMP DP  RH WIND       PRES   REMARKS
BAUDETTE       LGT SNOW  21  17  84 NW14      30.17R FOG     WCI   8
FLAG ISLAND    CLOUDY    19  16  86 NW20      30.21R WCI   4
INTL FALLS     LGT SNOW  19  15  84 NW8       30.12R FOG     WCI   9
WASKISH        LGT SNOW  18  16  93 NW10      30.18R WCI   6
BIG FORK       FLURRIES  19  16  86 MISG      30.12R
LONGVILLE      LGT SNOW  19  16  86 NW8G16    30.15R WCI   9
GRAND RAPIDS   LGT SNOW  19  16  86 NW17      30.13R FOG     WCI   4
CRANE LAKE     LGT SNOW  19  18  93 N9        30.09R WCI   9
ORR            LGT SNOW  19  16  86 NW8G17    30.06R WCI   9
COOK           LGT SNOW  19  16  86 NW7       30.07R WCI  10
$$
MNZ012-019>021-037-081100-
   Northeast Minnesota

CITY           SKY/WX    TMP DP  RH WIND       PRES   REMARKS
DULUTH         LGT SNOW  22  18  85 NW13      30.02R FOG     WCI  10
ELY            CLOUDY    19  16  86 NW8       30.01R WCI   9
HIBBING        MIX PCPN  19  15  84 NW21      30.07R WCI   3
EVELETH        FLURRIES  22  17  81 NW9G17    30.05R WCI  12
DULUTH HARBOR  CLOUDY    27  21  80 NW17      30.07R WCI  14
TWO HARBORS    MOCLDY    27  18  69 NW7       30.00R WCI  19
SILVER BAY     CLOUDY    25  18  74 NW7       29.98R WCI  17
GRAND MARAIS     N/A     26  18  71 VRB3      29.98R
G MARAIS ARPRT LGT SNOW  18  12  79 NW16G28   29.88R WCI   3
$$
MNZ029>031-032-039>041-046>048-054>057-064-081100-
   West Central Minnesota

CITY           SKY/WX    TMP DP  RH WIND       PRES   REMARKS
FERGUS FALLS   LGT SNOW  16  12  86 NW24      30.34R WCI  -3
WHEATON        LGT SNOW  16  12  86 W20G31    30.37R WCI  -1
MORRIS         CLOUDY    14  10  85 NW25G32   30.29R WCI  -5
ALEXANDRIA     MIX PCPN  17  13  84 NW20      30.23R FOG     WCI   1
ELBOW LAKE     LGT SNOW  13  11  92 NW20      30.29R WCI  -5
WADENA         FLURRIES  18  12  79 NW17G24   30.20R WCI   2
GLENWOOD       CLOUDY    14  10  85 NW21      30.23R FOG     WCI  -4
APPLETON       CLOUDY    16  10  79 NW20      30.33R WCI  -1
BENSON         LGT SNOW  16  10  79 N22G30    30.29R WCI  -2
ORTONVILLE     FLURRIES  14   9  79 NW21G26   30.35R WCI  -4
MADISON        LGT SNOW  18  12  79 NW18G26   30.35R WCI   2
WILLMAR        LGT SNOW  16  12  86 NW16G25   30.27R WCI   0
$$
MNZ033>034-036-042>043-049>051-058-059-081100-
   Central Minnesota

CITY           SKY/WX    TMP DP  RH WIND       PRES   REMARKS
ST CLOUD       MOCLDY    17  13  84 W14       30.18R WCI   3
PAYNESVILLE    PTCLDY    15  13  90 W15G22    30.23R WCI   0
AITKIN         MIX PCPN  23  16  74 NW7       30.12R WCI  15
PINE RIVER     CLOUDY    18  12  79 NW8G16    30.19R WCI   7
BRAINERD       CLOUDY    19  13  77 NW16G22   30.16R WCI   4
STAPLES        CLOUDY    18  12  79 NW17      30.19R WCI   2
LONG PRAIRIE   FLURRIES  19  14  79 W14       30.20R WCI   6
LITTLE FALLS   CLOUDY    19  14  79 NW12      30.18R WCI   7
LITCHFIELD     PTCLDY    18  12  79 NW15G24   30.22R WCI   3
BUFFALO        MOCLDY    17  12  82 W12G22    30.20S WCI   4
MAPLE LAKE     MOCLDY    17  14  86 W12       30.20S WCI   4
HUTCHINSON     CLOUDY    16  12  84 W16G24    30.24R WCI   0
$$
MNZ037-044-045-052-053-081100-
   East Central Minnesota

CITY           SKY/WX    TMP DP  RH WIND       PRES   REMARKS
PRINCETON      CLEAR     18  16  93 W10       30.16R WCI   6
MORA           LGT SNOW  21  16  79 W9G16     30.14R WCI  11
CAMBRIDGE      FLURRIES  19  12  73 W10       30.13R WCI   8
RUSH CITY      CLOUDY    19  16  86 W12       30.13R WCI   7
MOOSE LAKE     LGT SNOW  23  19  86 NW6       30.08R WCI  16
HINCKLEY       LGT SNOW  23  19  86 NW10G16   30.10R WCI  12
CLOQUET        FLURRIES  21  16  79 NW13G18   30.05R WCI   9
MCGREGOR       CLOUDY    23  19  86 NW10G16   30.11R WCI  12
$$
MNZ071>073-080-081-089-090-097-098-081100-
   Southwest Minnesota

CITY           SKY/WX    TMP DP  RH WIND       PRES   REMARKS
MONTEVIDEO     FLURRIES  16  10  79 N20       30.33R WCI  -1
GRANITE FALLS  CLOUDY    17  12  80 W23G30    30.34R WCI   0
CANBY          CLOUDY    15   9  76 NW18G28   30.37R WCI  -2
MARSHALL       FLURRIES  13   7  77 NW26G32   30.33R WCI  -7
REDWOOD FALLS  LGT SNOW  15   9  76 NW18G29   30.30R WCI  -2
OLIVIA         LGT SNOW  18  12  79 NW17G26   30.27R WCI   2
PIPESTONE      LGT SNOW   9   3  78 NW18G28   30.34R WCI -10
WINDOM         FLURRIES  12   7  79 W22G29    30.29R WCI  -7
WORTHINGTON    LGT SNOW   9   3  78 W26       30.33R WCI -13
JACKSON        CLOUDY    10   5  79 W21G28    30.30R WCI  -9
TRACY          CLOUDY    14   9  79 NW23G31   30.33R WCI  -5
SLAYTON        CLOUDY     9   5  83 W21G26    30.32R WCI -10
$$
MNZ065>067-074>077-082>085-091>093-081100-
   South Central Minnesota

CITY           SKY/WX    TMP DP  RH WIND       PRES   REMARKS
MANKATO        FLURRIES  14   9  80 W22G31    30.25R WCI  -4
NEW ULM        LGT SNOW  12   9  85 W18G26    30.28R WCI  -5
ST JAMES       FLURRIES  12   9  85 W23G30    30.30R WCI  -7
FAIRMONT       FLURRIES  13   7  77 NW24G31   30.29R WCI  -7
GLENCOE        CLOUDY    16  13  89 W20G25    30.22S WCI  -1
OWATONNA       FLURRIES  14   9  79 W22G28    30.21R WCI  -4
WASECA         LGT SNOW  14  10  85 W18G24    30.24S WCI  -3
ALBERT LEA     LGT SNOW  16  12  86 W14G23    30.22S WCI   1
$$
MNZ078>079-086>088-094>096-081100-
   Southeast Minnesota

CITY           SKY/WX    TMP DP  RH WIND       PRES   REMARKS
ROCHESTER      LGT SNOW  13   8  81 W21       30.16R WCI  -5
RED WING       LGT SNOW  16  10  79 W13       30.17R WCI   2
STANTON        LGT SNOW  16  10  79 W15G22    30.19R WCI   1
DODGE CENTER   LGT SNOW  12   9  85 W21G28    30.17S WCI  -6
WINONA           N/A     18  10  73 NW8G17    30.19S WCI   7
AUSTIN         LGT SNOW  12   9  85 W21G26    30.20S WCI  -6
PRESTON        LGT SNOW  12   7  83 W16G22    30.17S WCI  -5
$$
ABBREVIATIONS USED IN REMARKS
   TC - TEMPERATURES IN CELSIUS
  WCI - WIND CHILL INDEX
   HX - HEAT INDEX
  VSB - VISIBILITY
$$




USA.gov is the U.S. government's official web portal to all federal, state and local government web resources and services.